Погода в Батурине

Россия / Томская область     56°15′41″N   84°58′22″E
темп.,
°C
ветер,
м/с
пор.,
м/с
влажн.,
%
обл.,
%
осадки,
мм/ч
давл.,
гПа
погр.,
м
29 сентября, ср
ср2901:00+2в11789 0.0 102012
04:00+1в2282100 0.0 101843
07:000всв288570 0.0 1017173
10:00+4всв4116734 0.0 1015491
13:00+8всв575188 0.0 1013896
16:00+9всв4754100 0.0 10121101
19:00+7в3965100 0.1 1012436
22:00+6в3974100 0.1 1011516
30 сентября, чт
чт3001:00+5вюв2690100 0.1 1011300
04:00+4ююв37967 0.0 1010270
07:00+4ююв2690100 0.0 1011505
10:00+3ю3695100 0.1 1011557
13:00+3ююв3797100 0.5 1010678
16:00+3ююз2598100 0.7 1011581
19:00+2юз3798100 1.8 1011455
22:00+2зюз3898100 0.8 1011488
1 октября, пт
пт101:00+2з4898100 1.7 1010767
04:00+2зюз3798100 0.3 1010601
07:00+2зюз2598100 0.9 1009406
10:00+2з259796 0.4 1009375
13:00+3з249799 1.0 1009363
16:00+3зюз3590100 0.8 1009688
19:00+2зюз3697100 1.1 1011416
22:00+1юз3798100 0.3 1012360
2 октября, сб
сб201:00+2юз3798100 0.4 1012348
04:00+1юз3798100 0.2 1013435
07:00+1юз3798100 0.6 1013331
10:00+2юз3799100 0.5 1015367
13:00+1сз1399100 1.3 1016146
16:00+2зсз3584100 0.8 1018786
19:00+1зюз2691100 1.2 1020229
22:000зюз269495 0.4 1021284
3 октября, вс
вс301:00−1юз2696100 0.4 1022260
04:00−1ю2798100 0.1 1022340
07:000ююз3798100 0.6 1023423
10:00+1ююз3693100 0.4 1023521
13:00+2юз3582100 1.0 1023889
16:00+3ююз2580100 0.4 1023926
19:00+1ююз2595100 1.7 1024445
22:00−2ююв1299100 0.0 102453